TimeEDT,TemperatureF,Dew PointF,Humidity,Sea Level PressureIn,VisibilityMPH,Wind Direction,Wind SpeedMPH,Gust SpeedMPH,PrecipitationIn,Events,Conditions,WindDirDegrees,DateUTC
12:15 AM,60.3,53.1,77,29.86,10.0,South,6.9,-,N/A,,Overcast,180,2013-04-25 04:15:00
12:35 AM,60.3,53.4,78,29.88,10.0,WSW,3.5,-,N/A,,Overcast,240,2013-04-25 04:35:00
12:55 AM,61.0,53.8,77,29.88,10.0,WSW,5.8,-,N/A,,Overcast,240,2013-04-25 04:55:00
1:15 AM,61.3,54.0,77,29.89,10.0,West,5.8,-,N/A,,Overcast,260,2013-04-25 05:15:00
1:35 AM,62.1,53.1,72,29.91,10.0,WNW,15.0,24.2,N/A,,Overcast,290,2013-04-25 05:35:00
1:55 AM,62.6,46.9,57,29.92,10.0,WNW,12.7,-,N/A,,Overcast,300,2013-04-25 05:55:00
2:15 AM,61.7,44.8,54,29.93,10.0,West,17.3,29.9,N/A,,Overcast,280,2013-04-25 06:15:00
2:35 AM,60.1,40.3,48,29.93,10.0,West,23.0,31.1,N/A,,Overcast,270,2013-04-25 06:35:00
2:55 AM,57.7,40.6,53,29.95,10.0,West,19.6,24.2,N/A,,Overcast,270,2013-04-25 06:55:00
3:15 AM,56.5,40.6,55,29.96,10.0,West,16.1,20.7,N/A,,Overcast,280,2013-04-25 07:15:00
3:35 AM,55.8,40.3,56,29.97,10.0,West,15.0,21.9,N/A,,Mostly Cloudy,270,2013-04-25 07:35:00
3:55 AM,55.4,40.1,56,29.98,10.0,West,9.2,-,N/A,,Overcast,280,2013-04-25 07:55:00
4:15 AM,55.4,39.7,56,30.01,10.0,WNW,12.7,18.4,N/A,,Overcast,290,2013-04-25 08:15:00
4:35 AM,54.3,35.4,49,30.02,10.0,North,12.7,21.9,N/A,,Overcast,350,2013-04-25 08:35:00
4:55 AM,52.9,33.1,47,30.04,10.0,NW,16.1,21.9,N/A,,Overcast,320,2013-04-25 08:55:00
5:15 AM,52.0,32.5,48,30.07,10.0,NW,11.5,17.3,N/A,,Overcast,310,2013-04-25 09:15:00
5:35 AM,51.3,32.0,48,30.06,10.0,NW,15.0,18.4,N/A,,Overcast,320,2013-04-25 09:35:00
5:55 AM,50.9,32.0,48,30.10,10.0,NW,12.7,19.6,N/A,,Scattered Clouds,310,2013-04-25 09:55:00
6:15 AM,49.5,31.8,51,30.11,10.0,WNW,13.8,23.0,N/A,,Clear,300,2013-04-25 10:15:00
6:35 AM,48.6,31.1,51,30.12,10.0,WNW,18.4,24.2,N/A,,Clear,300,2013-04-25 10:35:00
6:55 AM,48.6,31.3,51,30.14,10.0,NW,11.5,21.9,N/A,,Clear,310,2013-04-25 10:55:00
7:15 AM,48.6,31.1,51,30.16,10.0,NW,12.7,24.2,N/A,,Clear,320,2013-04-25 11:15:00
7:35 AM,48.6,30.4,50,30.17,10.0,NW,17.3,23.0,N/A,,Clear,320,2013-04-25 11:35:00
7:55 AM,48.6,30.0,49,30.18,10.0,WNW,18.4,24.2,N/A,,Clear,300,2013-04-25 11:55:00
8:15 AM,50.0,30.2,47,30.19,10.0,NW,12.7,-,N/A,,Clear,310,2013-04-25 12:15:00
8:35 AM,50.2,29.5,45,30.19,10.0,NW,12.7,17.3,N/A,,Clear,310,2013-04-25 12:35:00
8:55 AM,50.9,29.3,43,30.19,10.0,WNW,15.0,21.9,N/A,,Clear,300,2013-04-25 12:55:00
9:15 AM,51.8,28.6,41,30.19,10.0,WNW,17.3,21.9,N/A,,Clear,300,2013-04-25 13:15:00
9:35 AM,52.7,27.5,38,30.19,10.0,NW,15.0,21.9,N/A,,Clear,320,2013-04-25 13:35:00
9:55 AM,53.2,27.5,37,30.19,10.0,NNW,12.7,18.4,N/A,,Clear,340,2013-04-25 13:55:00
10:15 AM,54.1,27.7,36,30.19,10.0,NNW,10.4,19.6,N/A,,Clear,330,2013-04-25 14:15:00
10:35 AM,55.4,28.4,36,30.19,10.0,WNW,12.7,17.3,N/A,,Clear,300,2013-04-25 14:35:00
10:55 AM,56.5,26.4,32,30.19,10.0,NNW,15.0,20.7,N/A,,Clear,330,2013-04-25 14:55:00
11:15 AM,57.2,27.3,32,30.19,10.0,NW,9.2,20.7,N/A,,Clear,320,2013-04-25 15:15:00
11:35 AM,57.2,26.4,31,30.20,10.0,NW,11.5,17.3,N/A,,Clear,310,2013-04-25 15:35:00
11:55 AM,58.3,27.0,30,30.20,10.0,WNW,13.8,17.3,N/A,,Clear,290,2013-04-25 15:55:00
12:35 PM,58.8,27.1,30,30.20,10.0,NW,9.2,-,N/A,,Clear,320,2013-04-25 16:35:00
12:55 PM,59.4,27.1,29,30.20,10.0,NW,10.4,-,N/A,,Clear,320,2013-04-25 16:55:00
1:15 PM,61.0,27.9,28,30.19,10.0,NW,8.1,-,N/A,,Clear,320,2013-04-25 17:15:00
1:35 PM,61.0,28.2,29,30.18,10.0,NNW,6.9,-,N/A,,Clear,340,2013-04-25 17:35:00
1:55 PM,63.1,27.9,26,30.18,10.0,WNW,8.1,-,N/A,,Clear,290,2013-04-25 17:55:00
2:15 PM,62.4,27.1,26,30.17,10.0,NNW,8.1,-,N/A,,Clear,340,2013-04-25 18:15:00
2:35 PM,63.5,26.4,25,30.17,10.0,West,6.9,-,N/A,,Clear,270,2013-04-25 18:35:00
2:55 PM,63.9,25.0,23,30.17,10.0,WSW,3.5,-,N/A,,Clear,250,2013-04-25 18:55:00
3:15 PM,65.1,24.8,22,30.16,10.0,North,5.8,-,N/A,,Clear,360,2013-04-25 19:15:00
3:35 PM,65.7,25.9,22,30.16,10.0,West,6.9,-,N/A,,Clear,280,2013-04-25 19:35:00
3:55 PM,65.8,24.6,21,30.16,10.0,North,4.6,-,N/A,,Clear,360,2013-04-25 19:55:00
4:15 PM,66.0,24.1,20,30.16,10.0,West,3.5,-,N/A,,Clear,270,2013-04-25 20:15:00
4:35 PM,65.7,25.3,22,30.16,10.0,WNW,4.6,-,N/A,,Clear,300,2013-04-25 20:35:00
4:55 PM,66.2,22.8,19,30.16,10.0,NW,3.5,-,N/A,,Clear,310,2013-04-25 20:55:00
5:15 PM,66.2,22.8,19,30.16,10.0,WSW,6.9,-,N/A,,Clear,250,2013-04-25 21:15:00
5:35 PM,65.5,23.5,20,30.16,10.0,Calm,Calm,-,N/A,,Clear,0,2013-04-25 21:35:00
5:55 PM,66.4,23.5,20,30.17,10.0,West,5.8,-,N/A,,Clear,270,2013-04-25 21:55:00
6:15 PM,65.5,24.4,21,30.17,10.0,SW,4.6,-,N/A,,Clear,220,2013-04-25 22:15:00
6:35 PM,65.5,24.6,21,30.17,10.0,West,6.9,-,N/A,,Clear,260,2013-04-25 22:35:00
6:55 PM,65.3,25.0,22,30.18,10.0,WSW,5.8,-,N/A,,Clear,250,2013-04-25 22:55:00
7:15 PM,64.4,25.2,23,30.18,10.0,West,6.9,-,N/A,,Clear,260,2013-04-25 23:15:00
7:35 PM,63.7,25.3,23,30.19,10.0,WSW,8.1,-,N/A,,Clear,250,2013-04-25 23:35:00
7:55 PM,63.0,25.2,24,30.19,10.0,WSW,5.8,-,N/A,,Clear,250,2013-04-25 23:55:00
8:15 PM,62.6,24.6,24,30.20,10.0,WSW,4.6,-,N/A,,Clear,250,2013-04-26 00:15:00
8:35 PM,62.1,25.5,25,30.21,10.0,West,5.8,-,N/A,,Clear,260,2013-04-26 00:35:00
8:55 PM,61.7,25.7,25,30.22,10.0,Calm,Calm,-,N/A,,Clear,0,2013-04-26 00:55:00
9:15 PM,58.6,33.8,39,30.23,10.0,South,4.6,-,N/A,,Clear,190,2013-04-26 01:15:00
9:35 PM,57.2,36.3,46,30.24,10.0,South,4.6,-,N/A,,Clear,190,2013-04-26 01:35:00
9:55 PM,56.1,36.7,48,30.25,10.0,South,3.5,-,N/A,,Clear,190,2013-04-26 01:55:00
10:15 PM,55.2,37.6,52,30.25,10.0,South,3.5,-,N/A,,Clear,190,2013-04-26 02:15:00
10:35 PM,54.3,37.4,53,30.25,10.0,Calm,Calm,-,N/A,,Clear,0,2013-04-26 02:35:00
10:55 PM,53.8,37.4,54,30.26,10.0,Calm,Calm,-,N/A,,Clear,0,2013-04-26 02:55:00
11:15 PM,53.6,37.0,53,30.26,10.0,South,3.5,-,N/A,,Clear,190,2013-04-26 03:15:00
11:35 PM,52.5,37.4,56,30.27,10.0,Calm,Calm,-,N/A,,Clear,0,2013-04-26 03:35:00
11:55 PM,51.8,37.4,58,30.27,10.0,Calm,Calm,-,N/A,,Clear,0,2013-04-26 03:55:00